TimeCDT,TemperatureF,Dew PointF,Humidity,Sea Level PressureIn,VisibilityMPH,Wind Direction,Wind SpeedMPH,Gust SpeedMPH,PrecipitationIn,Events,Conditions,WindDirDegrees,DateUTC
12:53 AM,51.1,34.0,52,30.22,10.0,NE,8.1,-,N/A,,Overcast,40,2013-03-28 05:53:00
1:53 AM,50.0,33.1,52,30.22,10.0,ENE,9.2,-,N/A,,Overcast,70,2013-03-28 06:53:00
2:53 AM,48.0,35.1,61,30.22,10.0,ENE,6.9,-,N/A,,Mostly Cloudy,60,2013-03-28 07:53:00
3:53 AM,46.0,36.0,68,30.21,10.0,ENE,9.2,-,N/A,,Clear,60,2013-03-28 08:53:00
4:53 AM,46.0,35.1,66,30.22,10.0,ENE,9.2,-,N/A,,Clear,70,2013-03-28 09:53:00
5:53 AM,45.0,35.1,68,30.22,10.0,East,4.6,-,N/A,,Mostly Cloudy,80,2013-03-28 10:53:00
6:53 AM,46.9,36.0,66,30.23,10.0,ENE,5.8,-,N/A,,Overcast,70,2013-03-28 11:53:00
7:53 AM,46.9,36.0,66,30.25,10.0,ENE,5.8,-,N/A,,Mostly Cloudy,70,2013-03-28 12:53:00
8:53 AM,51.1,36.0,56,30.25,10.0,ENE,6.9,-,N/A,,Partly Cloudy,60,2013-03-28 13:53:00
9:53 AM,55.0,36.0,49,30.26,10.0,East,6.9,-,N/A,,Clear,80,2013-03-28 14:53:00
10:53 AM,60.1,37.9,44,30.25,10.0,NE,6.9,-,N/A,,Clear,50,2013-03-28 15:53:00
11:53 AM,66.9,43.0,42,30.24,10.0,Variable,3.5,-,N/A,,Clear,0,2013-03-28 16:53:00
12:53 PM,70.0,46.9,44,30.22,10.0,WSW,11.5,18.4,N/A,,Clear,240,2013-03-28 17:53:00
1:53 PM,71.1,48.0,44,30.18,10.0,South,8.1,-,N/A,,Partly Cloudy,170,2013-03-28 18:53:00
2:53 PM,72.0,48.0,43,30.16,10.0,SW,11.5,-,N/A,,Mostly Cloudy,220,2013-03-28 19:53:00
3:53 PM,73.0,46.9,39,30.12,10.0,SSW,12.7,16.1,N/A,,Partly Cloudy,210,2013-03-28 20:53:00
4:53 PM,73.0,45.0,37,30.12,10.0,South,9.2,-,N/A,,Clear,170,2013-03-28 21:53:00
5:53 PM,73.0,46.0,38,30.11,10.0,South,5.8,-,N/A,,Mostly Cloudy,190,2013-03-28 22:53:00
6:53 PM,71.1,46.9,42,30.12,10.0,South,5.8,-,N/A,,Partly Cloudy,180,2013-03-28 23:53:00
7:53 PM,66.9,48.0,51,30.13,10.0,South,4.6,-,N/A,,Scattered Clouds,190,2013-03-29 00:53:00
8:53 PM,64.9,48.0,54,30.15,10.0,South,6.9,-,N/A,,Partly Cloudy,180,2013-03-29 01:53:00
9:53 PM,64.0,48.0,56,30.15,10.0,South,3.5,-,N/A,,Clear,170,2013-03-29 02:53:00
10:53 PM,64.0,48.0,56,30.16,10.0,South,3.5,-,N/A,,Clear,180,2013-03-29 03:53:00
11:53 PM,57.9,48.0,70,30.16,10.0,East,3.5,-,N/A,,Partly Cloudy,80,2013-03-29 04:53:00